Location: Pitton
(51.0667°N, 1.7000°W)
Time: 01:28:28
(UTC+00:00)

Cosmos 1980 - Pass Details

Date: 17 September 2019
Orbit: 841 x 846 km, 71.0° (Epoch: 16 October)

Event Time Altitude Azimuth Distance (km) Brightness Sun altitude
Rises 20:03:20 0° 329° (NNW) 3,410 7.8 -16.9°
Reaches altitude 10° 20:05:48 10° 327° (NNW) 2,471 7.0 -17.2°
Maximum altitude 20:11:27 74° 244° (WSW) 880 3.8 -18.0°
Enters shadow 20:15:17 21° 163° (SSE) 1,800 5.0 -18.5°
